When you browse on this site, cookies collect data to enhance your experience and personalize the content and advertising you see.
Visit our Privacy Policy to learn more. By continuing to use the site, you agree to this use of cookies and data.
  • In Czech Republic
  • List of Countries
  • For 7 days
  • Water Temperature
  • Satellite Maps
  • Weather Map
  • Weather Widgets
  • user-avatar
    Login

    Hourly Weather Salzburg

    Today, 23 March, Saturday

    Time Temperature Precipitation Wind Pressure Humidity
    00:00 -2°C° 0 mm 2 mps 631 mmHg 83%
    01:00 -2°C° 0 mm 2 mps 631 mmHg 82%
    02:00 -2°C° 0 mm 2 mps 631 mmHg 81%
    03:00 -2°C° 0 mm 2 mps 630 mmHg 81%
    04:00 -2°C° 0 mm 2 mps 630 mmHg 80%
    05:00 0°C° 0 mm 1 mps 630 mmHg 80%
    06:00 0°C° 0 mm 1 mps 631 mmHg 79%
    07:00 0°C° 0 mm 1 mps 631 mmHg 79%
    08:00 +3°C° 0 mm 1 mps 631 mmHg 78%
    09:00 +5°C° 0 mm 1 mps 632 mmHg 77%
    10:00 +7°C° 0 mm 0 mps 633 mmHg 76%
    11:00 +7°C° 0 mm 0 mps 633 mmHg 74%
    12:00 +8°C° 0 mm 0 mps 633 mmHg 72%
    13:00 +10°C° 0 mm 1 mps 633 mmHg 71%
    14:00 +10°C° 0 mm 1 mps 632 mmHg 72%
    15:00 +10°C° 0 mm 1 mps 632 mmHg 74%
    16:00 +9°C° 0 mm 1 mps 632 mmHg 76%
    17:00 +7°C° 0 mm 1 mps 631 mmHg 80%
    18:00 +3°C° 0 mm 0 mps 630 mmHg 84%
    19:00 +1°C° 0 mm 0 mps 629 mmHg 89%
    20:00 +1°C° 0 mm 0 mps 630 mmHg 90%
    21:00 +1°C° 0 mm 1 mps 630 mmHg 90%
    22:00 +1°C° 0 mm 1 mps 630 mmHg 91%
    23:00 +1°C° 0 mm 1 mps 630 mmHg 90%

    Tomorrow, 24 March, Sunday

    Time Temperature Precipitation Wind Pressure Humidity
    00:00 +1°C° 0 mm 1 mps 630 mmHg 90%
    01:00 +1°C° 0 mm 1 mps 630 mmHg 90%
    02:00 0°C° 0 mm 1 mps 629 mmHg 89%
    03:00 0°C° 0 mm 1 mps 629 mmHg 88%
    04:00 -2°C° 0 mm 2 mps 629 mmHg 88%
    05:00 0°C° 0 mm 1 mps 629 mmHg 86%
    06:00 +1°C° 0 mm 1 mps 629 mmHg 85%
    07:00 +1°C° 0 mm 1 mps 629 mmHg 83%
    08:00 +3°C° 0 mm 1 mps 629 mmHg 78%
    09:00 +6°C° 0 mm 1 mps 630 mmHg 73%
    10:00 +8°C° 0 mm 0 mps 631 mmHg 68%
    11:00 +9°C° 0 mm 1 mps 631 mmHg 66%
    12:00 +10°C° 0 mm 1 mps 631 mmHg 64%
    13:00 +11°C° 0 mm 1 mps 630 mmHg 62%
    14:00 +10°C° 0 mm 1 mps 630 mmHg 65%
    15:00 +10°C° 0 mm 1 mps 629 mmHg 69%
    16:00 +9°C° 0 mm 1 mps 629 mmHg 72%
    17:00 +7°C° 0 mm 1 mps 628 mmHg 80%
    18:00 +5°C° 0 mm 1 mps 627 mmHg 87%
    19:00 +2°C° 0 mm 0 mps 627 mmHg 94%
    20:00 +3°C° 0.2 mm 1 mps 627 mmHg 94%
    21:00 +3°C° 0.2 mm 1 mps 627 mmHg 95%
    22:00 +3°C° 0.2 mm 1 mps 628 mmHg 96%
    23:00 +3°C° 0.3 mm 1 mps 627 mmHg 96%

    Day after tomorrow, 25 March, Monday

    Time Temperature Precipitation Wind Pressure Humidity
    00:00 +2°C° 0.3 mm 1 mps 627 mmHg 97%
    01:00 +2°C° 0.3 mm 1 mps 627 mmHg 97%
    02:00 +2°C° 0.2 mm 1 mps 627 mmHg 97%
    03:00 +2°C° 0.2 mm 1 mps 626 mmHg 97%
    04:00 +1°C° 0.2 mm 1 mps 626 mmHg 97%
    05:00 +1°C° 0.3 mm 1 mps 626 mmHg 97%
    06:00 +1°C° 0.3 mm 1 mps 626 mmHg 97%
    07:00 +1°C° 0.3 mm 1 mps 626 mmHg 97%
    08:00 +2°C° 0.8 mm 1 mps 626 mmHg 96%
    09:00 +2°C° 0.8 mm 1 mps 626 mmHg 94%
    10:00 +1°C° 0.8 mm 2 mps 626 mmHg 93%
    11:00 +1°C° 0.7 mm 2 mps 626 mmHg 92%
    12:00 +1°C° 0.7 mm 2 mps 625 mmHg 92%
    13:00 -1°C° 0.7 mm 2 mps 625 mmHg 92%
    14:00 -1°C° 0.4 mm 2 mps 625 mmHg 90%
    15:00 -1°C° 0.4 mm 2 mps 625 mmHg 89%
    16:00 -1°C° 0.4 mm 2 mps 624 mmHg 88%
    17:00 -2°C° 0.8 mm 3 mps 625 mmHg 90%
    18:00 -4°C° 0.8 mm 3 mps 625 mmHg 92%
    19:00 -5°C° 0.8 mm 3 mps 625 mmHg 94%
    20:00 -6°C° 0.7 mm 3 mps 626 mmHg 94%
    21:00 -7°C° 0.7 mm 3 mps 626 mmHg 93%
    22:00 -6°C° 0.7 mm 2 mps 627 mmHg 92%
    23:00 -7°C° 0.6 mm 2 mps 627 mmHg 93%

    26 March, Tuesday

    Time Temperature Precipitation Wind Pressure Humidity
    00:00 -7°C° 0.6 mm 2 mps 627 mmHg 93%
    01:00 -7°C° 0.6 mm 2 mps 628 mmHg 94%
    02:00 -7°C° 0.7 mm 2 mps 628 mmHg 94%
    03:00 -7°C° 0.7 mm 2 mps 628 mmHg 94%
    04:00 -7°C° 0.7 mm 2 mps 628 mmHg 94%
    05:00 -7°C° 0.6 mm 2 mps 629 mmHg 94%
    06:00 -7°C° 0.6 mm 2 mps 629 mmHg 93%
    07:00 -7°C° 0.6 mm 2 mps 630 mmHg 93%
    08:00 -6°C° 0.3 mm 2 mps 630 mmHg 90%
    09:00 -6°C° 0.3 mm 2 mps 630 mmHg 86%
    10:00 -5°C° 0.3 mm 2 mps 631 mmHg 83%
    11:00 -4°C° 0.2 mm 2 mps 631 mmHg 81%
    12:00 -4°C° 0.2 mm 2 mps 631 mmHg 79%
    13:00 -3°C° 0.2 mm 2 mps 631 mmHg 77%
    14:00 -3°C° 0.1 mm 2 mps 630 mmHg 77%
    15:00 -1°C° 0.1 mm 1 mps 630 mmHg 77%
    16:00 -1°C° 0.1 mm 1 mps 630 mmHg 77%
    17:00 -3°C° 0 mm 1 mps 630 mmHg 82%
    18:00 -6°C° 0 mm 1 mps 629 mmHg 86%
    19:00 -7°C° 0 mm 1 mps 629 mmHg 91%
    20:00 -8°C° 0 mm 1 mps 629 mmHg 91%
    21:00 -8°C° 0 mm 1 mps 630 mmHg 90%
    22:00 -8°C° 0 mm 1 mps 630 mmHg 90%
    23:00 -8°C° 0 mm 1 mps 630 mmHg 89%

    27 March, Wednesday

    Time Temperature Precipitation Wind Pressure Humidity
    00:00 -8°C° 0 mm 1 mps 630 mmHg 88%
    01:00 -9°C° 0 mm 1 mps 630 mmHg 86%
    02:00 -9°C° 0 mm 1 mps 630 mmHg 86%
    03:00 -9°C° 0 mm 1 mps 630 mmHg 86%
    04:00 -9°C° 0 mm 1 mps 629 mmHg 86%
    05:00 -8°C° 0 mm 1 mps 630 mmHg 85%
    06:00 -8°C° 0 mm 1 mps 630 mmHg 83%
    07:00 -7°C° 0 mm 1 mps 630 mmHg 82%
    08:00 -4°C° 0 mm 1 mps 631 mmHg 77%
    09:00 -2°C° 0 mm 1 mps 632 mmHg 71%
    10:00 0°C° 0 mm 1 mps 632 mmHg 65%
    11:00 +1°C° 0 mm 1 mps 632 mmHg 66%
    12:00 +2°C° 0 mm 1 mps 632 mmHg 67%
    13:00 +1°C° 0 mm 2 mps 632 mmHg 69%
    14:00 +2°C° 0.1 mm 1 mps 631 mmHg 71%
    15:00 +1°C° 0.1 mm 1 mps 631 mmHg 74%
    16:00 +1°C° 0.1 mm 1 mps 631 mmHg 77%
    17:00 0°C° 0.2 mm 1 mps 631 mmHg 83%
    18:00 -1°C° 0.2 mm 1 mps 631 mmHg 88%
    19:00 -2°C° 0.2 mm 1 mps 631 mmHg 93%
    20:00 -2°C° 0.3 mm 1 mps 631 mmHg 93%
    21:00 -3°C° 0.3 mm 1 mps 631 mmHg 94%
    22:00 -3°C° 0.3 mm 1 mps 631 mmHg 94%
    23:00 -3°C° 0.3 mm 1 mps 631 mmHg 94%

    28 March, Thursday

    Time Temperature Precipitation Wind Pressure Humidity
    00:00 -3°C° 0.3 mm 1 mps 631 mmHg 94%
    01:00 -3°C° 0.3 mm 1 mps 631 mmHg 94%
    02:00 -3°C° 0.2 mm 1 mps 631 mmHg 93%
    03:00 -3°C° 0.2 mm 1 mps 631 mmHg 93%
    04:00 -3°C° 0.2 mm 1 mps 631 mmHg 93%
    05:00 -3°C° 0.2 mm 1 mps 631 mmHg 92%
    06:00 -3°C° 0.2 mm 1 mps 631 mmHg 92%
    07:00 -2°C° 0.2 mm 1 mps 631 mmHg 91%
    08:00 -1°C° 0.4 mm 1 mps 632 mmHg 89%
    09:00 0°C° 0.4 mm 1 mps 632 mmHg 88%
    10:00 +1°C° 0.4 mm 1 mps 632 mmHg 87%
    11:00 +1°C° 0.2 mm 1 mps 632 mmHg 86%
    12:00 +2°C° 0.2 mm 1 mps 632 mmHg 85%
    13:00 +3°C° 0.2 mm 1 mps 632 mmHg 85%
    14:00 +3°C° 0 mm 1 mps 632 mmHg 85%
    15:00 +3°C° 0 mm 1 mps 632 mmHg 85%
    16:00 +3°C° 0 mm 1 mps 632 mmHg 85%
    17:00 +1°C° 0 mm 1 mps 632 mmHg 89%
    18:00 0°C° 0 mm 1 mps 631 mmHg 92%
    19:00 -2°C° 0 mm 1 mps 631 mmHg 96%
    20:00 -3°C° 0 mm 1 mps 631 mmHg 95%
    21:00 -3°C° 0 mm 1 mps 632 mmHg 95%
    22:00 -4°C° 0 mm 1 mps 632 mmHg 95%
    23:00 -4°C° 0 mm 1 mps 632 mmHg 94%
    Show more